Volver al catálogo

CZ-6A DEB

ActivoPO
NORAD 56591·DEBRIS·🇨🇳 China

Lanzado Nov 11, 2022 desde Taiyuan Satellite Launch Center

Loading…

Próximos Pases (próximas 24 horas)

TLE

ActualizadoSource: Space-Track

Época: Sep 14, 2026, 01:00 UTC

1 56591U 22151ADP 26257.04176331  .00000093  00000-0  13828-3 0  9991
2 56591  99.0950 172.7930 0290215  72.6709 290.5957 13.57819726168033

Sigue CZ-6A DEB en tiempo real con AllMySat

Download on the App Store